Weather reports worldwide

Advertisment
Bluefield, wv, United States of America (2072067): temperature & dewpoint: 15.05.2019 11:00:00 - 21.05.2019 11:00:00 (EDT)Bluefield, wv, United States of America (2072067): wind speed & gusts: 15.05.2019 11:00:00 - 21.05.2019 11:00:00 (EDT)Bluefield, wv, United States of America (2072067): wind direction: 15.05.2019 11:00:00 - 21.05.2019 11:00:00 (EDT)Bluefield, wv, United States of America (2072067): reduced air pressure: 15.05.2019 11:00:00 - 21.05.2019 11:00:00 (EDT)Bluefield, wv, United States of America (2072067): visibility: 15.05.2019 11:00:00 - 21.05.2019 11:00:00 (EDT)Bluefield, wv, United States of America (2072067): precipitation: 15.05.2019 11:00:00 - 21.05.2019 11:00:00 (EDT)
Date & Time tt [°C] td [°C] ff [km/h] ff [kn] fx [km/h] fx [kn] dd ppp [hPa] vv [km] rr [mm]
21.05.2019 11:00:00 17,8 10,0 5 3 - - - 1017,1 16 -
21.05.2019 10:00:00 16,1 11,1 11 6 - - WSW 1017,2 16 -
21.05.2019 09:00:00 13,9 10,6 0 0 - - N 1016,9 16 -
21.05.2019 08:00:00 11,7 10,0 0 0 - - N 1016,7 16 -
21.05.2019 07:00:00 11,1 10,0 0 0 - - N 1015,9 16 -
21.05.2019 06:00:00 11,7 9,4 5 3 - - WNW 1015,6 16 -
21.05.2019 05:00:00 11,7 9,4 5 3 - - W 1015,0 16 -
21.05.2019 04:00:00 12,2 9,4 0 0 - - N 1014,8 16 -
21.05.2019 03:00:00 12,8 9,4 5 3 - - W 1014,9 16 -
21.05.2019 02:00:00 13,3 9,4 8 4 - - W 1015,2 16 -
21.05.2019 01:00:00 14,4 9,4 5 3 - - W 1015,4 16 -
21.05.2019 00:00:00 16,1 8,9 9 5 - - - 1015,2 16 -
20.05.2019 23:00:00 17,2 8,9 8 4 - - WNW 1015,1 16 -
20.05.2019 22:00:00 17,8 7,8 11 6 - - WNW 1015,3 16 -
20.05.2019 21:00:00 18,9 7,2 9 5 - - W 1014,7 16 -
20.05.2019 20:00:00 20,6 7,2 18 10 - - NW 1014,3 16 -
20.05.2019 19:00:00 22,2 6,1 15 8 48 26 W 1013,5 16 -
20.05.2019 18:00:00 22,8 5,0 24 13 - - W 1013,5 16 -
20.05.2019 17:00:00 22,2 10,0 21 11 - - WNW 1013,0 16 -
20.05.2019 16:00:00 22,2 11,7 18 10 - - WNW 1013,4 16 -
20.05.2019 15:00:00 23,3 12,2 22 12 - - W 1013,6 16 -
20.05.2019 14:00:00 22,8 11,7 26 14 - - W 1014,1 16 -
20.05.2019 13:00:00 21,7 14,4 18 10 - - W 1014,9 16 -
20.05.2019 12:00:00 20,6 14,4 11 6 - - - 1015,4 16 -
20.05.2019 11:00:00 20,0 14,4 16 9 - - WSW 1015,7 16 0,0
20.05.2019 10:00:00 17,8 13,9 13 7 - - W 1016,0 16 0,0
20.05.2019 09:00:00 18,9 13,9 15 8 - - WSW 1015,5 16 -
20.05.2019 08:00:00 18,3 13,3 13 7 - - WSW 1015,4 16 -
20.05.2019 07:00:00 18,3 13,3 18 10 - - WSW 1014,4 16 -
20.05.2019 06:00:00 18,3 13,3 9 5 - - WSW 1013,9 16 -
20.05.2019 05:00:00 18,3 13,9 11 6 - - W 1013,7 16 0,3
20.05.2019 04:00:00 18,9 13,3 9 5 - - SW 1013,8 16 -
20.05.2019 03:00:00 18,9 13,3 11 6 - - SW 1014,4 16 -
20.05.2019 02:00:00 18,9 13,3 5 3 - - SSW 1014,7 16 -
20.05.2019 01:00:00 18,9 13,9 9 5 - - SW 1014,2 16 -
20.05.2019 00:00:00 18,9 14,4 8 4 - - WSW 1014,7 16 -
19.05.2019 23:00:00 18,9 13,9 11 6 - - SW 1014,5 16 -
19.05.2019 22:00:00 18,9 14,4 5 3 - - WSW 1014,1 16 -
19.05.2019 21:00:00 18,3 15,0 5 3 - - SW 1014,0 16 -
19.05.2019 20:00:00 18,3 15,0 5 3 - - SW 1013,9 16 1,3
19.05.2019 19:00:00 21,1 16,1 8 4 - - W 1012,9 16 0,0
19.05.2019 18:00:00 23,9 14,4 13 7 - - SSW 1012,4 16 0,0
19.05.2019 17:00:00 23,9 15,6 13 7 - - S 1012,6 16 -
19.05.2019 16:00:00 23,3 17,8 5 3 - - - 1013,7 16 2,8
19.05.2019 15:00:00 19,4 15,0 15 8 - - SSW 1014,4 4,8 2,8
19.05.2019 14:00:00 22,2 16,7 13 7 55 30 SSW 1015,4 16 0,0
19.05.2019 13:00:00 25,6 16,1 15 8 - - SW 1015,2 16 -
19.05.2019 12:00:00 23,3 15,0 21 11 - - SW 1015,7 10 -
19.05.2019 11:00:00 23,9 15,0 11 6 - - SSW 1016,0 16 -
19.05.2019 10:00:00 22,8 15,0 9 5 - - - 1016,2 16 -
19.05.2019 09:00:00 22,2 15,0 9 5 - - SW 1016,1 16 -
19.05.2019 08:00:00 20,6 14,4 9 5 - - - 1016,1 16 -
19.05.2019 07:00:00 20,0 14,4 8 4 - - SSW 1015,5 16 -
19.05.2019 06:00:00 20,0 14,4 9 5 - - SSW 1015,2 16 -
19.05.2019 05:00:00 20,0 14,4 9 5 - - SW 1015,3 16 -
19.05.2019 04:00:00 20,0 14,4 8 4 - - - 1015,1 16 -
19.05.2019 03:00:00 20,6 14,4 11 6 - - SW 1015,3 16 -
19.05.2019 02:00:00 18,9 13,9 5 3 - - S 1015,7 16 -
19.05.2019 01:00:00 18,9 12,8 9 5 - - SW 1016,0 16 -
19.05.2019 00:00:00 21,1 12,8 8 4 - - SSW 1015,9 16 0,0
18.05.2019 23:00:00 21,7 11,1 9 5 - - - 1015,8 16 -
18.05.2019 22:00:00 21,7 13,9 8 4 - - S 1015,9 16 -
18.05.2019 21:00:00 22,2 12,8 8 4 - - - 1015,6 16 -
18.05.2019 20:00:00 23,9 12,2 8 4 - - - 1015,1 16 -
18.05.2019 19:00:00 26,1 7,2 11 6 - - SSW 1014,5 16 -
18.05.2019 18:00:00 27,2 10,0 13 7 - - W 1014,6 16 -
18.05.2019 17:00:00 26,1 11,7 8 4 - - WSW 1014,9 16 -
18.05.2019 16:00:00 26,7 11,1 11 6 - - WNW 1015,2 16 -
18.05.2019 15:00:00 26,1 11,7 9 5 - - - 1016,0 16 -
18.05.2019 14:00:00 24,4 12,8 13 7 - - W 1016,8 16 -
18.05.2019 13:00:00 23,3 12,8 16 9 - - NW 1018,0 16 -
18.05.2019 12:00:00 23,3 13,9 13 7 - - WNW 1018,2 16 -
18.05.2019 11:00:00 22,2 14,4 16 9 - - NW 1018,5 16 -
18.05.2019 10:00:00 21,1 14,4 11 6 - - W 1018,2 16 -
18.05.2019 09:00:00 19,4 13,9 11 6 - - W 1017,6 16 -
18.05.2019 08:00:00 18,3 14,4 11 6 - - W 1016,8 16 -
18.05.2019 07:00:00 16,1 13,9 9 5 - - WSW 1016,3 16 -
18.05.2019 06:00:00 15,6 12,8 11 6 - - WSW 1015,7 16 -
18.05.2019 05:00:00 15,0 12,2 9 5 - - W 1015,3 16 -
18.05.2019 04:00:00 14,4 11,7 9 5 - - WSW 1015,0 16 -
18.05.2019 03:00:00 13,9 12,2 9 5 - - WSW 1015,2 16 -
18.05.2019 02:00:00 15,0 11,1 5 3 - - W 1015,3 16 -
18.05.2019 01:00:00 14,4 12,8 5 3 - - WSW 1015,8 16 -
18.05.2019 00:00:00 13,9 12,8 5 3 - - S 1016,4 16 -
17.05.2019 23:00:00 15,6 13,3 0 0 - - N 1017,4 16 0,3
17.05.2019 22:00:00 16,1 12,8 9 5 54 29 - 1017,5 16 0,3
17.05.2019 21:00:00 20,6 15,0 8 4 - - WNW 1015,1 16 -
17.05.2019 20:00:00 21,1 15,6 5 3 - - W 1013,3 16 -
17.05.2019 19:00:00 22,2 16,1 9 5 - - WNW 1013,1 16 -
17.05.2019 18:00:00 22,2 15,0 15 8 - - W 1012,9 16 -
17.05.2019 17:00:00 23,3 13,3 22 12 - - WNW 1012,8 16 -
17.05.2019 16:00:00 23,9 13,9 24 13 - - WNW 1012,6 16 -
17.05.2019 15:00:00 23,9 15,0 24 13 - - WSW 1012,5 16 -
17.05.2019 14:00:00 23,3 15,0 24 13 - - WSW 1013,1 16 -
17.05.2019 13:00:00 22,2 15,0 15 8 - - W 1013,4 16 -
17.05.2019 12:00:00 20,0 13,9 15 8 - - WSW 1013,5 16 -
17.05.2019 11:00:00 16,7 14,4 21 11 - - WSW 1014,4 16 0,0
17.05.2019 10:00:00 14,4 13,3 11 6 - - SW 1015,7 16 0,0
17.05.2019 09:00:00 13,9 12,8 0 0 - - N 1015,9 6 0,3
17.05.2019 08:00:00 15,0 12,2 18 10 - - WSW 1013,1 16 0,0
17.05.2019 07:00:00 15,6 11,1 11 6 - - SW 1012,0 16 -
17.05.2019 06:00:00 15,6 10,6 16 9 - - W 1012,4 16 -
17.05.2019 05:00:00 15,0 10,6 8 4 - - W 1012,1 16 -
17.05.2019 04:00:00 15,0 10,6 11 6 - - WSW 1011,6 16 -
17.05.2019 03:00:00 15,0 10,6 13 7 - - WSW 1011,9 16 -
17.05.2019 02:00:00 14,4 10,0 13 7 - - WSW 1012,9 16 -
17.05.2019 01:00:00 14,4 10,0 9 5 - - WSW 1013,7 16 -
17.05.2019 00:00:00 15,0 9,4 13 7 - - WSW 1013,7 16 -
16.05.2019 23:00:00 15,0 8,9 5 3 - - W 1014,6 16 -
16.05.2019 22:00:00 15,6 8,3 8 4 - - W 1014,4 16 -
16.05.2019 21:00:00 16,1 8,3 9 5 - - W 1014,3 16 -
16.05.2019 20:00:00 17,8 8,9 9 5 - - WSW 1013,9 16 -
16.05.2019 19:00:00 19,4 8,3 13 7 - - W 1013,7 16 -
16.05.2019 18:00:00 20,0 8,3 16 9 - - WSW 1013,5 16 -
16.05.2019 17:00:00 20,0 7,2 13 7 - - W 1014,1 16 -
16.05.2019 16:00:00 20,0 7,8 13 7 - - WNW 1014,8 16 -
16.05.2019 15:00:00 18,9 7,8 9 5 - - WNW 1015,8 16 -
16.05.2019 14:00:00 17,8 7,2 11 6 - - - 1016,3 16 -
16.05.2019 13:00:00 17,2 7,2 13 7 - - NW 1016,7 16 -
16.05.2019 12:00:00 17,2 7,2 11 6 - - - 1017,2 16 -
16.05.2019 11:00:00 15,6 7,2 13 7 - - WNW 1017,7 - -
16.05.2019 10:00:00 13,3 7,2 9 5 - - - 1018,0 16 -
16.05.2019 09:00:00 12,2 7,2 9 5 - - WSW 1017,9 16 -
16.05.2019 08:00:00 10,0 6,1 11 6 - - WSW 1017,6 16 -
16.05.2019 07:00:00 7,8 5,6 8 4 - - WSW 1017,4 16 -
16.05.2019 06:00:00 8,3 5,6 9 5 - - W 1016,3 16 -
16.05.2019 05:00:00 8,3 5,0 8 4 - - WSW 1015,9 16 -
16.05.2019 04:00:00 8,9 5,6 9 5 - - WSW 1016,3 16 -
16.05.2019 03:00:00 8,3 5,0 9 5 - - WSW 1016,3 16 -
16.05.2019 02:00:00 8,9 5,0 9 5 - - WSW 1016,4 16 -
16.05.2019 01:00:00 9,4 4,4 8 4 - - WSW 1016,5 16 -
16.05.2019 00:00:00 10,0 3,9 8 4 - - WSW 1016,7 16 -
15.05.2019 23:00:00 10,0 4,4 8 4 - - WSW 1016,6 16 -
15.05.2019 22:00:00 11,1 3,9 8 4 - - W 1016,1 16 -
15.05.2019 21:00:00 12,8 3,3 5 3 - - WNW 1016,0 16 -
15.05.2019 20:00:00 14,4 2,8 9 5 - - WNW 1015,9 16 -
15.05.2019 19:00:00 15,6 3,3 15 8 - - NW 1015,9 16 -
15.05.2019 18:00:00 16,1 3,3 11 6 - - NW 1016,1 16 -
15.05.2019 17:00:00 16,7 3,3 16 9 - - NW 1015,5 16 -
15.05.2019 16:00:00 16,1 2,8 9 5 - - - 1015,8 16 -
15.05.2019 15:00:00 16,7 2,2 15 8 - - WNW 1016,3 16 -
15.05.2019 14:00:00 16,1 1,7 16 9 - - WNW 1016,7 16 -
15.05.2019 13:00:00 15,0 1,1 9 5 - - - 1017,4 16 -
15.05.2019 12:00:00 13,9 1,1 11 6 - - - 1018,1 16 -
15.05.2019 11:00:00 12,8 1,1 9 5 - - - 1018,4 16 -

tt = temperature
td = dewpoint
ff = wind speed
fx = gusts
dd = wind direction
ppp = reduced air pressure
vv = visibility
rr = precipitation

Next stations